CW6018 Weather Reports


time (UTC)temp
F
wind
direction
speed
knots
gust
knots
rain 1hr
in
rain 24hr
in
rain mn
in
humidity
%
barometer
mb
20260502214439 51 0 4.3 6.1 0.00 0.00 0.00 82 1008.9
20260502213440 51 0 3.5 5.2 0.00 0.00 0.00 82 1008.8
20260502212500 51 0 2.6 4.3 0.00 0.00 0.00 82 1008.7
20260502211420 51 180 3.5 5.2 0.00 0.00 0.00 82 1008.8
20260502210419 51 203 6.1 8.7 0.00 0.00 0.00 82 1008.8
20260502205439 51 0 6.1 9.6 0.00 0.00 0.00 82 1009.1
20260502204419 51 203 3.5 5.2 0.00 0.00 0.00 82 1008.7
20260502203419 51 0.0 0.0 0.00 0.00 0.00 82 1008.5
20260502202420 51 135 2.6 3.5 0.00 0.00 0.00 82 1008.6
20260502201419 51 135 3.5 4.3 0.00 0.00 0.00 82 1008.6
20260502200419 51 0.0 0.0 0.00 0.00 0.00 82 1008.8
20260502195419 51 0.0 0.9 0.00 0.00 0.00 82 1008.8
20260502194419 51 315 0.9 1.7 0.00 0.00 0.00 82 1008.9
20260502193439 51 0 2.6 3.5 0.00 0.00 0.00 81 1009.0
20260502192418 51 0 6.1 8.7 0.00 0.00 0.00 81 1009.1
20260502191419 51 0 7.0 8.7 0.00 0.00 0.00 81 1009.3
20260502190419 52 0 9.6 11.3 0.00 0.00 0.00 81 1009.2
20260502185439 52 0 9.6 12.2 0.00 0.00 0.00 81 1009.3
20260502184418 53 0 12.2 15.6 0.00 0.00 0.00 79 1009.4
20260502183419 53 0 7.8 10.4 0.00 0.00 0.00 77 1009.1
20260502182418 54 0 10.4 13.9 0.00 0.00 0.00 76 1009.2
20260502181419 54 203 9.6 13.0 0.00 0.00 0.00 74 1008.7
20260502180418 54 203 7.8 11.3 0.00 0.00 0.00 72 1008.5
20260502170420 56 203 8.7 11.3 0.00 0.00 0.00 67 1009.0
20260502163420 57 180 9.6 13.0 0.00 0.00 0.00 65 1009.1
20260502162419 58 180 9.6 14.8 0.00 0.00 0.00 64 1009.3
20260502161419 59 158 8.7 12.2 0.00 0.00 0.00 63 1009.3
20260502160439 58 180 7.8 10.4 0.00 0.00 0.00 65 1009.4
20260502151419 59 158 12.2 13.9 0.00 0.00 0.00 72 1009.8
20260502150420 59 158 8.7 12.2 0.00 0.00 0.00 73 1009.9
20260502130418 58 158 7.8 11.3 0.00 0.00 0.00 71 1011.3
20260502123418 57 158 8.7 12.2 0.00 0.00 0.00 73 1011.7
20260502122418 57 180 9.6 14.8 0.00 0.00 0.00 73 1011.8
20260502121418 57 180 7.0 8.7 0.00 0.00 0.00 74 1012.0
20260502120419 57 180 10.4 13.9 0.00 0.00 0.00 73 1012.2
20260502115418 57 180 9.6 13.0 0.00 0.00 0.00 74 1012.3
20260502114459 57 158 9.6 13.0 0.00 0.00 0.00 75 1012.2
20260502113418 57 158 9.6 13.0 0.00 0.00 0.00 75 1012.4
20260502112458 57 203 8.7 13.0 0.00 0.00 0.00 75 1012.5
20260502111418 56 180 10.4 12.2 0.00 0.00 0.00 76 1012.6
20260502110440 56 158 9.6 13.9 0.00 0.00 0.00 75 1012.7
20260502105420 56 180 9.6 13.0 0.00 0.00 0.00 76 1012.7
20260502104420 56 180 8.7 12.2 0.00 0.00 0.00 75 1012.7
20260502103420 56 180 7.8 11.3 0.00 0.00 0.00 74 1012.7
20260502101420 57 203 9.6 12.2 0.00 0.00 0.00 74 1012.9
20260502100420 57 203 8.7 11.3 0.00 0.00 0.00 73 1012.9
20260502091419 56 203 11.3 13.9 0.00 0.00 0.00 74 1013.2
20260502090419 56 180 7.8 10.4 0.00 0.00 0.00 75 1013.2
20260502071419 54 158 10.4 13.9 0.00 0.00 0.00 79 1013.6
20260502070419 54 158 12.2 14.8 0.00 0.00 0.00 79 1013.7
20260502065418 54 158 12.2 15.6 0.00 0.00 0.00 79 1013.7
20260502064418 54 158 8.7 13.0 0.00 0.00 0.00 79 1013.8
20260502063438 53 0 9.6 13.9 0.00 0.00 0.00 80 1013.9
20260502062418 53 0 10.4 13.0 0.00 0.00 0.00 80 1014.0
20260502061438 53 135 10.4 13.9 0.00 0.00 0.00 79 1014.0
20260502060418 53 0 8.7 12.2 0.00 0.00 0.00 78 1014.1
20260502055419 53 0 7.8 11.3 0.00 0.00 0.00 78 1014.1
20260502054439 53 0 9.6 13.0 0.00 0.00 0.00 78 1014.2
20260502053438 53 158 10.4 13.9 0.00 0.00 0.00 78 1014.2
20260502052418 53 135 7.8 11.3 0.00 0.00 0.00 78 1014.3
20260502051418 52 158 9.6 12.2 0.00 0.00 0.00 79 1014.4
20260502050419 51 135 7.0 10.4 0.00 0.00 0.00 80 1014.5
20260502045500 51 135 5.2 8.7 0.00 0.00 0.00 81 1014.6
20260502044438 50 135 7.0 8.7 0.00 0.00 0.00 81 1014.7
20260502043440 50 135 7.0 9.6 0.00 0.00 0.00 82 1014.8
20260502042420 50 135 7.8 9.6 0.00 0.00 0.00 82 1014.9
20260502041419 50 135 9.6 12.2 0.00 0.00 0.00 82 1015.1
20260502040420 50 158 9.6 10.4 0.00 0.00 0.00 81 1015.3
20260502035420 50 135 10.4 13.0 0.00 0.00 0.00 81 1015.4
20260502034420 49 158 10.4 12.2 0.00 0.00 0.00 81 1015.5
20260502033419 49 135 9.6 11.3 0.00 0.00 0.00 81 1015.6
20260502032419 49 158 7.8 9.6 0.00 0.00 0.00 80 1015.8
20260502031419 49 158 7.8 9.6 0.00 0.00 0.00 80 1016.0
20260502030420 49 158 9.6 10.4 0.00 0.00 0.00 78 1016.1
20260502025419 51 158 8.7 9.6 0.00 0.00 0.00 75 1016.3
20260502024419 51 180 7.8 9.6 0.00 0.00 0.00 72 1016.4
20260502023439 51 158 7.0 9.6 0.00 0.00 0.00 72 1016.7
20260502022419 51 180 8.7 12.2 0.00 0.00 0.00 69 1016.8
20260502021419 52 180 9.6 13.0 0.00 0.00 0.00 65 1017.0
20260502020419 52 203 8.7 12.2 0.00 0.00 0.00 66 1017.0
20260502015419 52 203 10.4 13.9 0.00 0.00 0.00 65 1017.1
20260502014419 51 180 8.7 12.2 0.00 0.00 0.00 71 1017.2
20260502013419 51 180 10.4 14.8 0.00 0.00 0.00 73 1017.4
20260502012419 50 180 9.6 11.3 0.00 0.00 0.00 77 1017.6
20260502011418 49 180 7.8 11.3 0.00 0.00 0.00 78 1017.7
20260502010418 50 180 8.7 11.3 0.00 0.00 0.00 78 1017.7
20260502005419 50 180 6.1 9.6 0.00 0.00 0.00 77 1017.8
20260502004418 50 180 8.7 13.9 0.00 0.00 0.00 76 1017.8
20260502003418 51 180 7.8 11.3 0.00 0.00 0.00 75 1018.0
20260502002418 51 180 7.0 9.6 0.00 0.00 0.00 73 1018.1
20260502001418 52 180 9.6 13.0 0.00 0.00 0.00 70 1018.1
20260502000418 52 180 8.7 12.2 0.00 0.00 0.00 70 1018.2
20260501235418 51 180 9.6 11.3 0.00 0.00 0.00 71 1018.3
20260501234418 52 203 8.7 10.4 0.00 0.00 0.00 68 1018.4
20260501233418 52 203 10.4 14.8 0.00 0.00 0.00 68 1018.6
20260501232418 52 203 9.6 12.2 0.00 0.00 0.00 70 1018.7
20260501231420 52 203 10.4 13.9 0.00 0.00 0.00 71 1018.8
20260501230500 52 203 8.7 10.4 0.00 0.00 0.00 71 1018.9
20260501225420 52 203 9.6 13.0 0.00 0.00 0.00 71 1019.0
20260501224440 52 203 11.3 14.8 0.00 0.00 0.00 72 1019.1
20260501223419 52 203 10.4 13.9 0.00 0.00 0.00 72 1019.2
20260501222420 52 203 11.3 13.0 0.00 0.00 0.00 70 1019.4
20260501221440 53 203 12.2 14.8 0.00 0.00 0.00 68 1019.3
20260501220420 53 203 12.2 14.8 0.00 0.00 0.00 67 1019.3
20260501215418 53 203 11.3 13.9 0.00 0.00 0.00 68 1019.4